2021-048B

Last updated on Sun Jun 06 2021 00:06:54 GMT+0000 (Coordinated Universal Time)

1 48832U 21048B 21155.73590201 .99940241 10591-4 34345-1 0 9999 2 48832 51.7067 44.7823 0077910 180.2116 179.8584 16.16912723 150

Satellite not in orbit

2021-048B